Location: Bouchavesnes-Bergen
(49.9859°N, 2.9203°E)
Time: 23:07:05
(UTC+00:00)

Meteor 1-31 Rocket - Pass Details

Date: 09 March 2021
Orbit: 519 x 547 km, 97.7° (Epoch: 13 April)

Event Time Altitude Azimuth Distance (km) Brightness Sun altitude
Rises 05:38:42 0° 5° (N) 2,704 6.4 -6.6°
Reaches altitude 10° 05:40:59 10° 356° (N) 1,803 5.4 -6.2°
Maximum altitude 05:44:27 32° 293° (WNW) 941 3.5 -5.7°
Drops below altitude 10° 05:47:52 10° 230° (SW) 1,774 5.0 -5.1°
Sets 05:50:06 0° 220° (SW) 2,654 5.9 -4.8°
